Time,TemperatureF,DewpointF,PressureIn,WindDirection,WindDirectionDegrees,WindSpeedMPH,WindSpeedGustMPH,Humidity,HourlyPrecipIn,Conditions,Clouds,dailyrainin,SoftwareType,DateUTC
2013-03-18 00:00:00,35.9,34.6,29.14,NE,36,1.0,3.0,95,0.00,RA,,0.00,WeatherDisplay:10.37,2013-03-18 00:00:00,
2013-03-18 00:30:00,35.7,34.1,29.14,NE,43,0.0,2.0,94,0.00,BKN,,0.00,WeatherDisplay:10.37,2013-03-18 00:30:00,
2013-03-18 01:00:00,35.4,33.8,29.14,NE,43,0.0,0.0,94,0.00,SCT,,0.00,WeatherDisplay:10.37,2013-03-18 01:00:00,
2013-03-18 01:30:00,35.5,34.2,29.14,NE,43,0.0,1.0,95,0.00,BKN,,0.00,WeatherDisplay:10.37,2013-03-18 01:30:00,
2013-03-18 02:00:00,35.4,34.2,29.15,NE,40,0.0,3.0,95,0.00,BKN,,0.00,WeatherDisplay:10.37,2013-03-18 02:00:00,
2013-03-18 02:30:00,35.3,34.1,29.15,NE,40,0.0,1.0,95,0.00,BKN,,0.00,WeatherDisplay:10.37,2013-03-18 02:30:00,
2013-03-18 03:00:00,35.4,34.1,29.15,NE,40,0.0,0.0,95,0.00,BKN,,0.00,WeatherDisplay:10.37,2013-03-18 03:00:00,
2013-03-18 03:30:00,35.7,34.4,29.15,NE,40,0.0,1.0,95,0.00,BKN,,0.00,WeatherDisplay:10.37,2013-03-18 03:30:00,
2013-03-18 04:00:00,35.9,34.6,29.15,North,355,0.0,2.0,95,0.00,BKN,,0.00,WeatherDisplay:10.37,2013-03-18 04:00:00,
2013-03-18 04:30:00,36.0,34.7,29.16,NNW,335,0.0,3.0,95,0.00,SCT,,0.00,WeatherDisplay:10.37,2013-03-18 04:30:00,
2013-03-18 05:00:00,35.8,34.5,29.17,NNE,24,0.0,4.0,95,0.02,RA,,0.02,WeatherDisplay:10.37,2013-03-18 05:00:00,
2013-03-18 05:30:00,35.6,34.3,29.17,NNE,17,0.0,2.0,95,0.01,BKN,,0.03,WeatherDisplay:10.37,2013-03-18 05:30:00,
2013-03-18 06:00:00,35.9,34.6,29.17,NNE,17,0.0,1.0,95,0.02,RA,,0.05,WeatherDisplay:10.37,2013-03-18 06:00:00,
2013-03-18 06:30:00,35.9,34.6,29.18,NNE,17,0.0,1.0,95,0.01,BKN,,0.05,WeatherDisplay:10.37,2013-03-18 06:30:00,
2013-03-18 07:00:00,36.2,34.9,29.18,NNE,13,1.0,5.0,95,0.00,BKN,,0.05,WeatherDisplay:10.37,2013-03-18 07:00:00,
2013-03-18 07:30:00,35.9,34.6,29.19,North,10,3.0,5.0,95,0.02,RA,,0.08,WeatherDisplay:10.37,2013-03-18 07:30:00,
2013-03-18 08:00:00,36.5,35.4,29.20,North,8,1.0,5.0,96,0.01,SCT,,0.09,WeatherDisplay:10.37,2013-03-18 08:00:00,
2013-03-18 08:30:00,35.9,34.6,29.21,North,357,1.0,5.0,95,0.04,RA,,0.13,WeatherDisplay:10.37,2013-03-18 08:30:00,
2013-03-18 09:00:00,35.9,34.9,29.21,North,350,1.0,3.0,96,0.00,BKN,,0.13,WeatherDisplay:10.37,2013-03-18 09:00:00,
2013-03-18 09:30:00,36.4,35.4,29.22,ENE,70,0.0,4.0,96,0.00,BKN,,0.13,WeatherDisplay:10.37,2013-03-18 09:30:00,
2013-03-18 10:00:00,37.1,36.1,29.22,SW,225,0.0,3.0,96,0.00,BKN,,0.13,WeatherDisplay:10.37,2013-03-18 10:00:00,
2013-03-18 10:30:00,38.7,37.7,29.23,NNE,15,1.0,4.0,96,0.00,BKN,,0.13,WeatherDisplay:10.37,2013-03-18 10:30:00,
2013-03-18 11:00:00,40.0,38.4,29.23,NNE,23,3.0,9.0,94,0.00,BKN,,0.13,WeatherDisplay:10.37,2013-03-18 11:00:00,
2013-03-18 11:30:00,41.8,38.8,29.24,NNW,328,2.0,10.0,89,0.00,BKN,,0.13,WeatherDisplay:10.37,2013-03-18 11:30:00,
2013-03-18 12:00:00,40.6,38.2,29.26,North,10,3.0,12.0,91,0.00,BKN,,0.13,WeatherDisplay:10.37,2013-03-18 12:00:00,
2013-03-18 12:30:00,41.0,38.6,29.26,North,1,2.0,8.0,91,0.00,BKN,,0.13,WeatherDisplay:10.37,2013-03-18 12:30:00,
2013-03-18 13:00:00,42.7,38.5,29.27,NNE,22,5.0,8.0,85,0.00,BKN,,0.13,WeatherDisplay:10.37,2013-03-18 13:00:00,
2013-03-18 13:30:00,43.4,38.9,29.27,NNE,21,2.0,9.0,84,0.01,RA,,0.13,WeatherDisplay:10.37,2013-03-18 13:30:00,
2013-03-18 14:00:00,43.5,38.4,29.28,North,3,2.0,10.0,82,0.00,BKN,,0.13,WeatherDisplay:10.37,2013-03-18 14:00:00,
2013-03-18 14:30:00,43.4,38.0,29.28,North,354,5.0,8.0,81,0.00,BKN,,0.13,WeatherDisplay:10.37,2013-03-18 14:30:00,
2013-03-18 15:00:00,43.6,37.2,29.29,North,11,3.0,8.0,78,0.00,BKN,,0.13,WeatherDisplay:10.37,2013-03-18 15:00:00,
2013-03-18 15:30:00,43.6,36.5,29.29,North,3,1.0,7.0,76,0.00,BKN,,0.13,WeatherDisplay:10.37,2013-03-18 15:30:00,
2013-03-18 16:00:00,42.9,37.8,29.30,North,8,2.0,7.0,82,0.00,BKN,,0.13,WeatherDisplay:10.37,2013-03-18 16:00:00,
2013-03-18 16:30:00,43.8,37.7,29.30,NNE,24,3.0,7.0,79,0.00,BKN,,0.13,WeatherDisplay:10.37,2013-03-18 16:30:00,
2013-03-18 17:00:00,42.3,37.2,29.31,North,10,3.0,12.0,82,0.00,BKN,,0.13,WeatherDisplay:10.37,2013-03-18 17:00:00,
2013-03-18 17:30:00,40.3,36.8,29.33,NNE,29,3.0,14.0,87,0.00,-RA,,0.13,WeatherDisplay:10.37,2013-03-18 17:30:00,
2013-03-18 18:00:00,38.9,36.5,29.34,North,7,2.0,12.0,91,0.01,-RA,,0.14,WeatherDisplay:10.37,2013-03-18 18:00:00,
2013-03-18 18:30:00,38.5,36.7,29.34,NE,38,1.0,5.0,93,0.02,RA,,0.16,WeatherDisplay:10.37,2013-03-18 18:30:00,
2013-03-18 19:00:00,39.0,36.9,29.35,North,11,2.0,9.0,92,0.00,BKN,,0.16,WeatherDisplay:10.37,2013-03-18 19:00:00,
2013-03-18 19:30:00,38.9,36.5,29.36,North,3,2.0,8.0,91,0.00,-RA,,0.16,WeatherDisplay:10.37,2013-03-18 19:30:00,
2013-03-18 20:00:00,38.8,36.4,29.37,NNE,21,1.0,9.0,91,0.00,-RA,,0.16,WeatherDisplay:10.37,2013-03-18 20:00:00,
2013-03-18 20:30:00,38.6,36.2,29.38,North,0,2.0,8.0,91,0.00,-RA,,0.16,WeatherDisplay:10.37,2013-03-18 20:30:00,
2013-03-18 21:00:00,36.7,34.6,29.38,North,6,2.0,9.0,92,0.03,-RA,,0.19,WeatherDisplay:10.37,2013-03-18 21:00:00,
2013-03-18 21:30:00,36.9,35.1,29.39,North,9,5.0,9.0,93,0.01,-RA,,0.20,WeatherDisplay:10.37,2013-03-18 21:30:00,
2013-03-18 22:00:00,37.1,34.7,29.39,NNE,28,3.0,12.0,91,0.00,-RA,,0.20,WeatherDisplay:10.37,2013-03-18 22:00:00,
2013-03-18 22:30:00,37.1,34.2,29.40,NNE,29,3.0,12.0,89,0.01,-RA,,0.20,WeatherDisplay:10.37,2013-03-18 22:30:00,
2013-03-18 23:00:00,37.1,34.4,29.40,NNE,16,2.0,8.0,90,0.00,-RA,,0.20,WeatherDisplay:10.37,2013-03-18 23:00:00,
2013-03-18 23:30:00,37.0,34.4,29.41,NNE,22,2.0,8.0,90,0.00,-RA,,0.20,WeatherDisplay:10.37,2013-03-18 23:30:00,